Wind_Gust
18 18 18 18 18 18 18 18 19 19 19 19 20 20 20 21 20 20 20 20 20 20 20 22 22 24 25 25 26 25 25 34 28 24 21 17 15 17 16 17 19 19 18 22 20 20 21 22 23 21 24 24 28 32 31 34 34 31 43 45 47 43 44 36 41 37 28 34 30 25 25 19 23 21 22 17 22 21 22 17 15 11 9 11 17 23 26 28
18 18 18 18 18 19 19 19 19 19 19 19 19 20 20 20 20 20 20 20 20 20 21 21 22 23 24 24 26 25 31 27 29 24 17 17 17 13 14 16 19 20 21 22 19 19 20 21 23 23 28 31 22 33 27 44 35 40 40 47 49 44 42 33 37 34 36 32 27 26 24 25 26 23 28 26 21 24 27 21 18 18 14 14 18 24 26 27
19 19 19 19 19 19 19 19 19 19 20 20 20 20 20 20 20 20 20 19 20 20 21 21 22 23 23 23 24 28 31 32 27 24 21 14 12 13 16 18 19 23 26 22 20 20 21 20 20 26 29 30 31 33 33 45 38 41 41 47 50 38 37 35 35 34 33 30 30 30 25 22 22 32 27 24 22 23 26 25 22 20 18 20 21 23 25 26
18 19 19 19 19 19 20 20 19 20 20 20 20 20 20 20 21 20 20 20 19 20 21 21 21 22 23 23 24 34 30 27 26 21 18 14 12 14 18 20 20 23 22 21 20 23 19 22 24 25 29 33 31 33 40 39 48 39 50 51 47 38 41 37 37 35 35 31 33 30 29 27 24 27 28 24 26 28 25 24 24 23 24 25 23 23 24 25
19 19 19 19 20 20 21 21 21 20 21 22 21 20 21 21 21 20 20 20 20 20 21 21 21 21 22 21 26 31 27 29 20 17 19 11 12 16 19 21 21 24 21 22 21 21 21 22 24 24 30 37 33 31 40 38 44 36 44 43 42 37 40 37 38 36 34 35 35 32 32 36 22 26 30 30 32 30 29 25 33 32 19 31 27 25 25 25
19 19 20 20 20 21 21 21 21 20 21 21 21 21 20 21 20 20 20 20 20 20 21 21 21 20 21 21 34 27 23 21 16 16 11 12 13 16 20 21 20 24 22 22 20 18 21 23 26 30 34 33 32 43 35 41 35 47 41 42 44 46 42 32 36 39 38 40 38 37 32 29 26 27 29 31 34 28 27 21 18 12 14 26 21 25 23 25
20 21 21 21 21 22 22 22 21 21 21 21 21 21 20 20 20 20 20 20 20 20 21 20 20 21 20 23 33 24 23 34 15 21 13 11 14 16 21 22 17 21 19 21 18 23 22 24 28 29 31 33 33 44 38 32 37 42 51 38 42 42 45 40 36 31 38 41 44 39 26 33 30 32 26 31 28 29 28 25 14 12 15 25 25 25 26 26
20 21 21 21 22 21 22 22 22 22 22 22 21 21 21 20 20 20 20 20 20 20 20 20 18 19 18 26 26 19 19 24 17 18 14 10 18 22 20 23 19 17 19 20 18 20 21 28 30 30 35 35 29 39 31 36 36 46 51 39 38 40 42 41 42 40 33 35 38 34 34 34 32 32 26 30 27 26 30 23 19 16 15 18 20 23 22 22
20 21 21 21 21 22 22 23 23 22 22 22 22 21 21 20 20 20 20 20 20 19 20 18 18 16 16 24 24 23 19 16 15 13 12 16 23 22 21 21 14 17 18 19 18 20 21 26 30 30 31 34 31 32 34 36 46 46 43 37 36 39 38 41 43 43 43 35 32 39 40 34 33 32 36 29 27 27 28 22 15 14 17 19 19 20 21 22
21 22 21 22 22 22 22 23 23 23 22 22 22 22 21 20 21 20 20 21 20 20 19 18 17 14 20 22 19 22 14 10 11 12 16 22 23 23 19 18 16 17 19 19 19 19 24 25 25 25 29 31 28 35 28 39 38 31 38 40 39 38 42 32 41 46 43 41 32 40 38 44 33 36 40 29 28 25 29 20 14 17 19 18 18 19 20 21
21 22 22 22 22 22 22 23 23 23 23 23 23 22 22 21 21 21 21 20 22 20 18 17 15 16 20 16 21 23 15 15 12 20 24 23 22 20 18 15 15 19 19 20 19 18 20 25 21 22 30 38 27 32 35 38 31 34 33 35 42 36 41 36 34 37 44 48 40 36 40 38 38 41 44 30 26 26 25 17 17 20 22 21 18 19 19 21
22 22 23 22 23 23 24 24 24 25 24 24 23 22 22 22 21 21 21 22 23 20 18 14 14 21 21 22 26 30 10 15 23 23 23 21 21 19 17 18 17 19 19 20 20 19 20 22 23 26 29 21 41 22 35 30 30 33 35 32 33 36 51 42 42 37 38 43 36 34 36 42 43 44 40 35 25 28 22 22 20 21 24 20 20 20 21 22
23 23 23 23 24 24 24 24 24 24 25 24 23 22 23 23 22 22 22 23 19 19 16 15 13 20 19 28 29 28 28 24 22 21 22 20 20 19 19 17 17 18 20 20 21 16 14 20 22 26 31 25 23 41 15 26 31 29 34 33 31 38 45 43 35 36 38 42 32 34 49 44 47 43 35 30 32 26 24 28 28 25 24 21 23 21 21 21
24 23 23 23 24 24 24 24 25 24 25 23 24 23 23 23 24 24 24 24 22 20 17 15 22 22 22 36 28 24 23 23 20 22 22 18 18 17 15 15 17 18 17 21 21 20 14 17 20 26 26 29 27 19 28 25 27 41 32 36 36 35 46 40 44 36 42 35 33 35 47 44 39 38 35 30 31 31 32 30 27 26 25 25 23 24 23 22
23 24 24 24 24 24 24 24 25 25 24 25 25 25 24 24 26 25 25 23 19 15 12 10 20 19 24 33 23 18 12 16 20 19 17 16 15 17 16 15 18 19 19 18 22 21 18 17 19 26 33 25 28 28 31 29 31 35 39 44 35 41 35 37 40 39 47 41 37 37 48 48 37 36 35 33 32 31 35 33 32 28 27 25 25 26 25 22
24 24 24 25 24 25 25 25 26 25 26 24 25 25 26 28 26 24 22 19 17 9 17 18 18 22 24 33 15 11 18 16 17 15 12 13 15 19 19 18 17 19 18 21 21 20 19 19 27 26 27 25 31 30 26 32 34 38 39 31 41 39 38 33 41 41 44 44 37 44 49 42 37 36 32 36 35 35 35 34 34 28 26 27 27 26 26 24
25 24 25 25 25 24 25 26 26 26 24 24 25 27 28 26 25 17 17 18 17 18 18 22 17 17 22 18 16 20 22 22 12 14 14 17 19 19 18 18 21 22 22 20 21 20 21 26 20 27 28 32 32 35 33 37 36 38 39 43 37 41 39 45 31 44 41 43 43 49 55 39 27 34 37 33 38 35 35 33 31 31 30 29 29 28 28 25
25 25 25 25 25 25 25 26 25 24 24 24 24 28 40 29 16 14 14 18 19 16 17 18 15 18 38 28 22 14 15 12 15 17 20 24 20 20 19 21 17 17 16 22 24 28 26 30 27 30 28 33 34 39 44 43 45 41 41 42 44 39 40 37 46 39 41 47 47 43 48 41 36 33 37 38 31 33 35 33 33 34 31 31 29 29 27 27
25 26 25 26 25 26 26 26 25 24 23 24 29 34 36 23 22 21 25 22 20 20 17 22 24 24 19 16 14 16 22 12 14 18 23 23 22 22 18 17 19 19 24 26 27 28 30 28 28 30 36 37 40 40 44 39 37 40 36 39 36 39 40 46 41 33 41 43 49 45 49 45 40 38 34 32 31 32 32 31 32 32 33 33 33 30 28 26
25 26 26 26 26 26 26 26 25 24 23 25 30 31 25 19 20 22 20 17 24 23 26 25 24 28 30 28 26 21 18 17 24 21 21 20 20 19 22 21 22 24 26 31 26 35 27 33 35 35 36 38 38 40 39 40 37 36 37 35 36 37 35 35 37 34 38 42 44 45 43 38 38 39 37 35 33 33 33 34 33 31 32 31 30 29 28 28
26 26 26 26 26 26 26 24 23 22 21 28 22 23 26 26 22 25 28 31 32 30 30 29 28 29 34 26 24 23 26 21 20 23 24 17 21 19 26 24 26 29 29 27 31 27 34 35 34 32 34 34 35 37 36 36 39 38 37 37 38 38 40 36 36 38 37 40 38 41 39 37 37 39 41 36 34 37 35 34 33 31 29 30 31 31 30 26
26 27 26 26 27 26 26 25 24 22 22 24 18 21 21 18 16 19 23 35 21 24 27 28 26 30 27 27 24 21 17 28 25 25 23 19 21 26 20 27 27 30 24 28 29 33 35 40 36 34 34 33 33 34 37 38 38 41 46 42 40 40 35 33 33 36 37 39 36 37 41 38 37 36 38 36 36 39 38 35 33 33 31 30 30 30 29 26
27 27 26 27 27 27 25 26 22 24 24 15 16 17 20 17 17 18 18 30 39 28 27 25 25 24 24 19 18 13 20 23 24 13 21 22 21 29 21 27 27 29 29 27 34 33 36 38 39 34 33 33 34 34 36 39 39 40 43 39 40 35 41 42 38 34 33 41 34 33 38 36 34 34 37 36 40 37 31 33 32 30 32 32 31 31 31 29
26 27 27 27 27 25 27 24 25 22 17 16 17 17 16 14 14 14 20 22 29 25 21 16 16 17 19 17 19 20 20 20 18 19 18 24 25 21 32 27 26 29 31 28 33 38 37 29 34 37 34 33 35 34 36 41 41 39 40 37 39 38 39 39 37 33 28 31 31 31 35 38 37 38 43 37 37 37 35 34 35 33 29 29 25 28 30 32
27 27 27 27 25 27 26 26 19 12 15 17 16 19 14 15 14 12 21 29 33 35 15 15 14 16 15 12 13 21 18 21 22 18 16 19 25 24 27 27 30 31 28 28 31 39 39 38 29 33 36 36 38 39 40 39 42 42 41 38 33 32 36 38 31 36 35 36 39 35 41 41 33 39 41 37 40 39 38 37 37 34 32 31 29 29 28 29
27 27 27 26 26 24 27 23 11 16 16 17 17 15 13 13 12 14 17 19 24 22 20 20 19 19 19 19 17 20 15 29 18 22 20 20 22 27 23 33 32 30 28 29 37 44 38 33 34 32 37 38 39 40 36 36 42 44 49 39 34 33 34 35 35 39 39 40 38 40 40 37 34 38 38 38 36 37 36 37 36 35 34 33 32 31 30 32
27 28 27 27 24 22 21 13 19 16 16 13 11 10 13 12 9 13 22 20 22 20 13 24 18 21 20 15 20 14 21 15 15 17 21 21 24 20 29 26 28 29 29 28 37 46 33 34 34 34 35 45 41 46 43 41 40 50 34 38 33 32 34 39 41 38 34 28 29 37 44 38 34 40 36 36 36 37 39 37 36 38 33 33 31 30 29 32
29 28 29 28 25 17 18 23 19 14 14 14 14 12 13 12 12 13 21 22 17 12 14 17 12 18 20 14 18 25 21 17 25 24 18 18 21 23 30 27 30 27 27 29 38 26 32 37 36 36 33 42 46 39 35 40 47 39 36 37 40 32 28 32 41 40 36 29 36 38 39 45 37 33 38 38 39 40 41 40 39 38 37 35 34 32 31 30
29 31 31 28 25 26 21 18 15 16 13 12 12 10 11 12 14 19 20 18 20 22 19 16 16 16 17 18 22 22 24 19 22 18 17 14 23 23 30 29 31 29 26 32 37 33 36 33 33 34 36 38 37 40 36 36 42 35 30 34 38 38 32 32 38 41 37 36 36 35 41 44 39 29 37 40 42 43 45 42 39 39 38 37 36 32 33 31
32 32 30 26 23 18 16 14 18 18 16 11 12 11 12 13 15 15 17 18 15 20 12 14 16 13 16 19 22 19 23 21 21 18 18 22 21 25 33 22 25 28 31 30 37 34 32 27 31 38 41 33 33 40 38 38 36 30 35 36 39 40 39 33 32 42 38 41 40 35 38 40 39 38 35 43 50 41 36 37 38 39 38 38 34 34 34 33
33 33 29 20 18 17 13 15 11 10 12 12 12 12 15 16 14 20 20 16 17 20 15 15 14 11 19 19 26 19 23 23 24 25 26 22 24 26 25 30 27 27 29 32 36 37 35 31 38 39 30 33 29 38 39 38 38 35 46 42 37 35 36 38 35 33 39 39 38 38 39 40 42 34 40 33 32 35 38 39 39 38 39 38 34 36 33 31
33 30 25 22 17 16 15 15 13 12 11 11 9 14 15 17 20 18 20 17 23 11 13 14 14 21 19 20 26 29 29 23 22 28 28 26 24 31 34 29 30 32 31 32 35 33 38 37 29 30 31 35 35 33 39 42 39 43 39 39 38 40 45 50 45 44 41 44 35 40 37 42 46 31 29 33 32 35 36 38 40 40 40 37 38 37 36 35
31 27 26 20 9 12 12 14 9 11 11 11 14 13 16 15 19 15 25 14 19 12 15 12 14 19 21 23 30 28 23 28 18 26 24 27 29 27 27 33 26 33 30 31 32 38 33 31 31 32 29 37 32 37 41 44 43 43 45 42 41 44 42 38 42 38 39 41 32 38 35 43 29 39 32 28 33 33 34 33 35 38 39 38 38 36 36 35
29 24 21 10 13 11 10 8 10 10 11 10 12 15 15 16 21 14 25 21 21 14 19 20 18 20 22 27 18 18 22 18 21 23 24 28 32 31 31 30 30 28 32 27 39 40 35 39 37 37 40 33 39 36 33 33 42 48 38 45 38 39 51 42 48 49 44 37 39 35 46 46 35 29 34 32 27 32 33 35 33 36 37 35 36 37 36 34
31 23 17 11 13 11 11 12 10 9 11 12 12 12 16 21 22 23 24 22 21 20 18 13 15 14 22 29 24 28 27 20 19 18 25 29 30 31 32 32 31 29 26 27 30 34 36 36 29 35 25 35 34 31 34 35 38 45 44 38 41 40 32 39 34 37 38 36 37 41 41 32 34 16 23 36 26 27 30 33 33 36 36 37 36 37 36 33
25 18 15 11 9 11 12 12 11 11 13 14 14 17 18 19 26 17 22 16 23 18 18 21 23 21 28 25 18 17 20 22 14 22 25 28 25 31 27 29 33 30 29 32 29 31 37 39 29 37 34 36 35 33 36 37 47 47 45 49 39 30 31 27 25 18 13 30 37 26 32 34 30 16 18 26 29 29 30 32 35 36 37 35 36 36 34 32
16 14 17 10 10 11 9 14 14 13 14 13 14 18 23 28 19 24 21 19 19 16 12 18 18 14 12 10 12 14 18 21 20 21 22 26 31 29 28 26 24 27 29 28 28 32 32 30 31 39 39 35 35 32 30 35 34 43 50 42 35 32 25 31 30 25 24 36 33 35 35 32 31 33 26 26 32 31 32 32 34 33 35 37 36 33 33 32
14 13 15 11 13 9 8 12 13 13 13 12 18 17 22 28 23 24 22 27 19 9 15 15 13 4 13 13 12 13 14 16 15 22 17 27 18 18 19 26 27 27 25 29 28 25 28 27 33 35 35 34 34 35 33 33 36 35 39 34 50 40 34 31 29 31 33 34 33 35 31 35 34 25 29 30 32 32 32 32 33 34 35 34 33 33 33 33
13 13 13 13 12 10 10 11 12 13 11 15 18 25 14 25 27 25 23 27 19 9 16 16 16 10 12 15 15 16 14 15 17 20 18 27 19 21 23 21 23 28 26 27 33 32 27 24 31 33 37 35 36 38 36 35 36 33 33 43 35 29 30 33 33 24 36 31 30 32 32 36 35 30 30 30 31 32 33 33 33 33 33 33 32 33 34 33
18 22 12 10 11 8 12 12 11 11 12 15 19 25 27 34 33 26 24 16 15 10 15 11 11 14 12 15 18 19 13 16 16 15 15 18 17 15 23 23 21 28 28 28 28 26 20 17 30 37 33 33 40 41 32 36 40 40 39 42 45 38 24 26 29 31 34 33 32 27 31 33 30 27 27 28 30 31 32 33 31 32 31 31 29 30 30 33
13 21 12 9 11 10 11 13 14 14 15 20 21 24 28 30 32 32 26 17 14 16 18 11 9 15 8 11 13 16 21 15 16 14 17 18 18 16 19 26 19 21 27 28 26 20 17 20 27 37 40 35 28 29 28 33 34 33 37 40 41 39 41 36 34 31 35 38 32 29 26 24 26 26 31 24 26 30 29 30 30 29 31 31 29 28 29 30
19 21 16 9 9 10 14 12 19 16 16 18 25 34 31 26 29 28 27 17 12 17 14 14 14 11 15 18 19 21 19 19 14 13 16 16 18 20 23 25 21 20 28 24 19 23 18 18 27 31 33 30 27 27 27 29 32 30 34 38 39 36 33 34 31 30 30 35 29 29 21 16 20 24 27 26 24 27 28 28 30 29 30 31 30 28 29 29
18 17 19 15 10 11 17 20 19 14 15 25 26 24 26 28 24 31 29 20 11 10 10 14 7 9 13 17 14 18 15 17 14 13 13 15 17 14 19 25 21 23 21 22 20 22 9 23 29 28 25 26 27 27 28 29 30 32 35 32 38 41 33 29 28 23 27 24 32 27 24 24 16 11 21 23 23 23 25 26 27 28 28 31 32 32 29 28
18 18 15 14 13 10 19 19 23 20 27 25 27 32 22 26 27 33 29 26 14 9 8 8 4 8 11 12 19 20 17 13 13 14 17 14 18 17 16 22 23 27 20 17 19 21 18 17 22 29 31 34 28 30 31 28 33 36 36 36 33 36 33 26 24 21 27 26 23 20 28 24 18 17 16 23 26 25 25 26 26 28 27 30 31 30 28 27
26 22 13 20 12 11 13 19 16 22 27 29 35 32 30 25 20 25 27 24 19 9 7 9 6 4 11 15 19 19 19 15 14 15 13 15 15 14 14 19 22 20 18 15 18 16 17 15 19 26 28 28 29 33 37 35 34 35 32 35 32 31 33 34 33 31 26 25 26 23 19 21 20 19 20 21 20 21 20 19 20 25 28 30 30 28 28 29
19 18 24 13 19 16 22 19 18 21 25 26 26 28 28 37 30 21 21 23 14 11 10 9 9 6 7 11 14 17 15 15 15 16 18 20 16 21 19 20 22 23 13 7 14 15 14 13 16 13 19 24 25 26 25 25 29 37 31 32 33 31 32 32 29 27 28 23 28 25 18 26 23 24 23 23 22 19 18 19 21 23 24 24 23 26 28 29
22 18 22 23 29 19 20 18 18 24 23 25 30 31 31 32 35 29 19 26 20 25 12 12 9 7 7 8 14 15 15 14 16 14 17 15 16 21 19 20 22 21 9 12 16 20 15 14 15 11 16 14 18 27 31 31 29 29 29 31 32 32 31 33 33 31 22 26 28 28 24 20 24 24 21 20 17 15 14 15 17 24 25 28 28 26 21 28
18 15 17 17 17 22 24 15 23 23 23 23 27 28 29 32 31 37 31 10 23 19 26 12 13 11 11 12 14 12 14 15 11 13 15 15 15 21 24 20 22 18 17 19 17 17 16 9 11 14 16 13 14 12 21 33 29 29 27 28 32 31 29 31 29 26 23 24 23 23 26 24 23 22 21 17 14 15 17 15 12 13 21 24 27 28 29 29
18 21 13 19 19 18 24 25 23 23 26 19 26 23 30 28 29 26 29 34 28 23 22 24 20 18 14 15 14 13 11 15 13 17 17 17 16 20 22 20 19 20 22 20 19 17 17 16 12 14 15 14 14 16 15 21 27 29 30 28 30 31 31 29 26 25 25 20 22 17 28 31 29 23 21 18 12 13 15 14 14 17 19 23 29 31 30 30
20 21 18 23 22 30 22 20 22 22 24 19 22 24 33 28 29 32 31 30 35 28 23 13 26 28 21 14 17 14 15 13 11 12 16 15 16 18 18 16 17 20 22 21 17 12 18 10 10 14 14 14 14 15 17 20 20 26 28 29 29 28 27 28 27 25 24 25 21 23 23 30 28 15 20 14 11 13 14 16 17 17 20 23 27 28 29 31
15 13 16 23 30 20 24 23 24 24 23 22 24 27 29 30 30 32 31 25 20 28 28 27 32 29 16 17 14 17 17 16 15 14 12 17 16 18 15 17 12 21 20 21 16 12 15 13 15 13 11 13 16 13 14 15 18 21 23 26 30 29 30 31 37 29 28 29 24 24 27 34 28 19 18 12 12 12 13 16 16 18 21 23 25 30 32 30
18 12 12 18 24 22 28 23 22 21 19 24 29 28 34 32 31 32 37 16 12 21 26 26 28 28 19 15 13 18 21 19 18 15 14 16 18 15 15 13 14 19 22 19 14 17 15 17 13 11 13 9 11 13 14 17 19 25 28 31 29 27 26 27 29 27 28 25 27 25 31 32 28 19 17 13 11 9 10 14 16 18 20 23 25 26 27 28
Wind_Speed
14 14 14 14 14 14 14 14 14 15 14 15 15 15 15 16 16 15 15 16 16 15 14 16 16 18 19 20 20 20 20 18 16 12 11 6 7 12 12 13 15 15 14 12 11 11 11 12 13 12 11 10 11 14 14 18 13 13 14 16 21 19 23 16 19 18 15 17 18 11 15 11 12 11 10 6 11 10 13 7 5 3 1 3 9 13 15 17
14 14 14 14 14 15 15 15 15 15 15 15 15 15 15 15 15 15 16 16 16 16 16 16 16 16 18 20 21 20 20 16 17 14 6 8 12 11 10 12 15 16 16 12 10 10 11 12 13 13 13 13 11 14 14 14 16 16 14 18 22 20 18 18 19 20 18 18 15 14 16 15 15 14 12 13 13 14 15 11 9 8 6 6 8 14 15 15
15 15 15 15 15 15 15 15 15 15 16 16 16 16 15 15 15 15 15 15 16 16 17 16 15 17 17 18 20 20 19 18 15 13 10 8 9 8 9 11 14 18 15 12 11 11 11 11 11 14 13 13 14 15 18 16 17 20 17 19 23 20 21 21 22 21 20 19 18 19 11 13 12 16 14 13 12 13 15 9 12 11 9 10 8 10 13 15
14 15 15 15 15 15 16 16 16 16 16 16 15 15 16 16 15 16 16 16 15 16 16 17 16 16 18 18 20 20 17 15 13 9 7 10 8 6 9 12 13 16 13 12 11 12 11 12 14 14 13 15 14 17 18 17 16 16 21 20 21 21 22 23 24 22 21 19 20 18 17 16 13 14 13 14 13 14 13 15 14 13 14 13 14 14 13 14
15 15 15 15 15 16 16 17 17 16 17 17 17 16 15 16 16 15 16 16 16 16 16 16 17 17 17 18 21 17 15 13 6 8 11 8 4 5 7 11 15 13 12 12 11 11 12 12 13 13 14 13 17 17 20 21 20 15 23 26 25 21 23 24 23 23 20 19 22 21 20 21 11 11 16 19 16 10 13 14 18 20 11 17 15 15 14 15
15 15 15 15 16 16 17 17 16 16 17 17 17 17 16 15 15 15 15 16 16 16 16 16 17 16 17 17 19 15 9 6 4 5 8 6 0 6 8 11 14 15 13 12 10 9 11 13 14 13 13 15 18 20 18 22 20 19 21 26 27 27 24 18 21 23 23 19 22 23 20 17 16 13 15 19 20 15 15 13 8 6 5 16 11 15 14 15
16 17 16 17 17 17 17 16 16 17 17 17 17 17 16 16 15 16 16 15 16 16 16 16 16 16 16 19 16 13 10 12 5 10 10 5 1 8 9 12 14 12 10 11 9 10 12 14 16 16 15 17 20 19 23 19 23 21 20 23 26 27 29 25 22 19 21 25 26 22 16 20 19 18 13 18 17 16 13 16 1 3 3 15 13 13 14 14
16 16 17 17 17 17 17 18 17 17 17 17 17 17 17 16 16 16 15 16 15 16 16 16 14 15 15 14 12 7 8 9 8 10 10 5 8 6 8 11 10 9 10 11 9 10 11 15 17 15 16 16 14 20 19 22 23 24 23 25 23 25 26 26 26 25 20 22 23 24 21 21 20 17 12 17 16 14 17 15 9 9 5 5 8 12 12 12
15 16 17 17 17 18 18 18 18 18 17 17 17 17 17 16 16 16 16 16 16 15 16 14 15 12 13 11 10 10 7 7 6 6 4 5 8 10 9 9 6 7 9 9 9 11 11 13 17 16 14 19 18 20 21 19 19 23 26 22 22 23 23 26 26 27 28 16 14 20 24 22 20 21 21 15 16 15 16 14 9 6 7 7 8 10 11 12
16 17 17 17 17 17 17 17 18 18 18 18 17 18 16 16 16 16 16 16 16 16 15 14 13 11 12 10 9 9 1 3 3 3 3 9 10 11 10 10 8 9 9 10 10 10 13 11 14 14 18 18 16 19 17 24 17 18 23 25 24 22 25 21 23 26 27 24 19 22 25 26 21 18 15 17 18 11 17 12 7 8 7 9 9 10 11 12
17 17 17 17 17 18 18 18 17 18 18 18 18 18 17 17 17 17 17 16 17 16 14 13 12 11 10 7 8 9 6 8 2 6 11 9 12 10 9 7 7 9 10 11 10 9 10 14 12 9 12 13 14 19 20 17 19 21 19 22 28 23 22 23 20 23 25 24 26 20 21 23 24 20 19 17 16 13 17 8 9 8 12 11 10 11 11 11
18 18 18 18 18 18 18 19 18 18 18 18 18 17 18 18 17 17 16 17 18 16 14 11 11 8 10 10 10 11 1 7 10 10 9 11 11 10 10 9 9 10 10 11 10 10 11 12 13 12 10 10 17 11 17 19 18 19 23 17 17 21 20 26 26 18 20 19 24 21 20 25 25 26 24 22 12 18 14 10 12 11 14 11 11 10 10 11
18 19 18 18 18 18 18 19 19 19 18 18 18 18 18 19 17 18 18 18 16 15 13 12 9 8 9 12 13 15 16 11 11 11 10 9 10 9 10 9 9 9 11 11 11 8 6 9 12 14 17 11 10 13 3 12 17 15 19 15 15 17 20 27 22 20 23 20 21 18 19 21 27 28 22 20 17 11 14 17 16 12 13 11 11 10 10 11
19 18 19 19 19 19 19 19 19 19 19 18 19 19 19 18 19 19 19 19 18 16 13 12 9 9 10 14 9 10 14 11 11 12 12 8 9 8 7 7 8 8 8 12 12 10 6 7 11 14 12 15 10 10 16 10 13 17 15 17 14 13 17 24 21 22 26 19 21 21 20 20 23 24 23 20 18 20 18 17 16 15 15 14 11 10 11 12
19 19 20 19 20 19 19 19 19 20 19 20 21 20 20 20 20 20 20 19 15 11 9 5 8 7 10 11 12 7 5 7 11 10 8 8 6 7 8 7 9 10 9 9 10 10 8 9 10 12 13 13 14 15 13 13 13 15 14 19 15 17 15 22 23 24 24 20 24 22 21 23 21 22 21 22 18 21 20 20 19 16 15 14 12 13 13 12
19 19 19 20 20 20 19 20 21 21 21 19 20 21 21 23 21 19 17 15 14 6 7 9 8 9 10 12 4 5 8 7 8 7 3 5 5 7 7 9 8 10 9 10 8 7 8 10 12 10 12 13 16 12 11 10 13 16 17 15 18 18 17 15 24 24 29 21 23 27 20 21 20 22 20 22 20 23 20 21 21 19 17 15 14 12 11 12
20 19 20 20 20 19 20 21 21 21 20 20 20 22 23 21 21 14 13 15 8 8 6 6 7 6 9 4 4 9 9 11 4 4 6 7 6 8 9 9 10 12 13 11 11 9 10 12 8 11 12 13 13 14 14 14 14 15 16 17 18 22 19 19 18 27 27 27 21 30 24 23 15 20 23 19 24 23 20 21 19 18 17 16 13 13 13 13
19 20 20 20 20 20 20 21 20 19 19 20 20 23 23 24 9 9 11 10 7 5 6 6 4 7 14 12 10 5 5 1 5 7 7 7 9 11 10 9 8 8 7 11 12 14 11 11 11 12 11 14 15 16 18 18 18 17 18 19 20 22 24 21 19 20 25 29 28 27 28 25 22 19 19 24 21 22 21 19 19 20 19 16 15 14 15 14
19 20 20 20 20 21 20 20 20 19 19 20 23 27 29 17 10 9 10 8 7 7 6 7 9 8 6 1 6 7 10 1 4 6 10 13 12 11 9 8 9 9 10 11 10 16 11 11 12 12 15 16 18 19 20 21 22 24 21 19 19 18 18 20 22 19 25 25 27 28 23 25 25 22 20 16 16 19 19 19 18 19 19 16 15 15 14 14
19 20 21 20 20 20 21 20 20 19 19 17 14 12 8 5 5 7 8 6 10 11 14 13 11 15 18 15 14 10 6 5 11 11 12 10 7 8 11 10 11 11 12 12 12 17 11 14 15 15 15 18 22 24 24 25 23 22 21 20 19 19 18 20 21 21 23 22 25 26 27 23 23 23 22 15 16 17 19 21 18 18 18 17 17 17 16 16
20 20 21 21 21 21 21 19 19 17 17 14 11 9 9 11 9 8 12 16 18 18 18 17 16 17 17 14 12 12 12 11 11 11 13 8 11 10 11 11 12 12 13 15 14 11 16 16 16 18 20 21 21 23 23 22 24 24 19 21 16 19 19 20 19 23 19 20 19 25 25 21 22 24 24 23 21 22 21 21 20 19 18 16 18 18 17 15
21 21 20 21 21 21 21 20 20 18 18 12 8 8 8 8 6 8 9 13 12 15 16 17 16 17 13 15 13 11 8 12 14 15 11 9 10 11 9 13 14 14 12 14 13 12 14 18 17 20 19 21 20 21 23 23 23 23 20 20 21 18 18 20 19 23 20 20 16 23 24 21 23 21 23 22 20 20 21 21 20 19 19 16 16 18 18 15
21 21 21 21 21 22 20 21 18 19 10 6 6 8 8 8 8 7 7 11 18 15 15 15 15 14 13 8 7 6 11 12 10 5 9 11 11 13 10 12 13 14 14 14 13 13 15 15 20 20 19 20 20 21 21 23 21 18 20 19 15 17 20 16 20 21 20 15 16 20 21 17 20 20 22 22 21 19 20 22 21 19 19 18 18 17 16 17
20 21 22 21 22 20 22 20 20 15 6 7 8 8 7 6 6 7 9 7 11 14 10 7 8 8 9 7 4 11 11 7 8 10 8 10 11 10 13 15 15 14 14 15 17 15 15 15 20 23 21 20 20 21 22 18 18 21 22 18 17 22 20 19 16 17 13 15 17 18 16 16 19 19 19 21 22 22 21 22 22 20 18 17 15 16 17 18
22 21 21 21 20 21 21 21 10 4 7 7 3 9 5 7 5 5 9 10 10 12 7 5 4 7 3 4 5 9 9 9 11 5 6 9 11 10 12 10 11 14 16 17 17 17 18 19 17 20 22 21 20 20 22 18 17 18 24 24 20 20 22 25 19 20 13 15 19 20 14 16 18 23 22 19 19 22 22 23 23 21 20 19 18 17 17 17
22 21 21 21 20 19 22 11 3 6 7 6 7 7 5 5 4 6 6 4 8 3 8 8 6 5 4 8 7 9 7 11 9 9 9 9 10 12 7 11 9 14 16 17 15 12 14 18 20 19 20 23 22 20 22 22 17 17 21 25 22 21 20 18 22 20 18 16 18 22 17 11 15 21 22 20 21 23 20 23 23 21 19 19 17 17 17 18
21 22 22 21 19 17 9 3 9 7 6 5 4 3 5 4 2 5 5 4 8 5 4 8 7 1 5 4 9 5 9 2 1 6 10 9 11 9 14 11 11 12 12 10 9 13 12 19 19 21 21 21 21 21 22 24 19 18 18 25 22 20 21 24 24 20 14 14 15 22 17 14 12 15 19 22 22 23 23 23 23 21 21 20 18 18 17 17
23 22 23 22 20 13 7 9 9 5 5 6 6 5 5 4 5 4 5 5 3 3 5 6 0 5 8 3 9 11 9 4 10 10 10 8 9 10 13 14 14 15 13 12 16 10 17 19 20 21 21 17 21 20 21 25 20 15 23 24 23 19 17 17 19 19 17 15 15 17 23 16 13 14 22 23 23 24 25 25 23 23 22 21 21 18 18 19
23 24 25 22 20 21 10 7 7 7 5 5 4 3 3 5 5 3 4 7 3 4 4 5 3 6 7 9 11 12 12 8 10 8 8 5 11 9 11 15 17 17 14 15 15 14 13 18 19 21 18 16 16 22 22 22 20 20 17 20 20 22 18 19 17 20 18 16 15 18 20 15 16 13 16 23 23 24 24 25 24 23 23 22 20 19 20 19
24 24 24 21 15 8 6 6 8 8 7 4 5 4 5 5 4 4 4 6 3 4 3 4 5 4 7 8 10 9 12 9 9 6 8 8 9 14 14 12 11 13 15 16 19 17 17 14 17 16 19 16 18 24 23 20 21 18 21 19 19 22 19 16 13 16 16 16 17 21 23 19 13 17 15 18 21 21 18 18 20 23 23 23 21 21 19 18
25 24 21 16 7 6 4 5 2 2 4 5 4 6 6 5 4 6 8 4 4 4 4 6 5 2 8 9 11 10 13 12 13 13 11 10 12 12 10 13 11 11 11 13 16 19 20 17 16 14 17 14 17 17 18 21 23 22 18 18 17 16 17 16 13 14 14 14 20 24 21 25 17 14 19 16 20 21 21 23 24 23 24 22 20 19 19 19
23 22 20 10 7 6 5 6 6 5 4 3 3 5 4 6 5 5 6 4 8 4 4 5 6 7 10 12 12 13 11 11 11 12 12 10 11 12 13 11 9 11 12 13 14 16 18 17 15 17 16 19 16 16 18 23 22 21 19 19 18 14 13 17 16 16 14 15 17 23 24 20 20 14 15 20 19 21 22 20 22 24 24 23 23 23 20 19
23 20 20 10 4 4 4 6 3 4 2 2 5 4 5 5 6 5 8 5 3 4 3 3 5 8 9 12 15 16 14 14 8 13 14 12 12 13 15 15 13 12 11 12 14 10 12 17 19 18 17 17 17 15 15 20 20 21 20 18 17 16 16 16 18 12 13 19 18 20 23 15 12 18 17 16 20 19 20 20 21 24 24 24 23 22 20 20
22 18 8 1 4 4 3 2 3 3 2 2 4 5 6 6 6 9 12 7 9 7 11 9 5 9 11 10 9 9 9 10 10 9 9 10 12 12 12 17 18 14 11 7 10 13 12 15 16 19 15 18 19 17 16 14 19 20 20 19 16 14 14 16 15 18 19 15 18 21 18 14 18 11 21 19 15 20 19 19 19 22 23 22 22 22 22 21
23 15 8 4 5 3 2 4 2 3 5 4 5 4 6 6 8 9 9 6 6 9 8 6 3 4 11 15 14 15 13 6 10 10 9 11 11 11 13 14 18 15 9 8 8 10 20 13 13 19 13 18 18 17 16 19 18 19 19 17 18 16 12 16 11 15 16 14 15 15 12 14 13 4 12 20 11 16 18 20 20 22 21 22 20 20 20 19
16 6 6 4 2 3 2 3 4 4 5 6 4 6 6 5 8 3 3 5 9 6 9 12 11 10 12 11 9 10 8 8 4 6 8 11 11 12 16 10 12 17 10 10 7 9 14 12 15 18 18 18 19 17 18 20 15 18 19 19 17 15 14 9 11 10 5 10 13 8 12 13 13 6 6 15 16 15 17 19 20 21 22 22 20 20 20 18
5 5 5 4 1 3 1 3 3 4 5 5 5 6 7 9 8 12 9 10 9 10 5 7 4 3 3 3 3 2 5 11 9 5 6 7 10 15 13 11 10 13 16 10 9 14 9 10 13 16 20 18 19 17 16 19 15 15 18 18 18 18 13 11 10 7 8 14 10 15 17 16 14 10 13 14 19 18 17 18 20 20 22 22 20 19 19 19
5 4 6 1 4 2 1 3 4 4 4 4 8 12 10 11 12 14 11 13 9 4 5 5 2 2 5 5 2 2 5 6 2 6 5 8 3 11 10 8 13 12 12 14 8 7 9 10 13 19 20 18 19 19 17 20 23 16 17 18 18 14 15 12 7 13 13 13 10 16 18 15 14 10 13 16 14 18 19 19 19 20 21 21 20 21 20 20
5 3 3 4 2 3 3 3 4 5 4 6 6 10 5 11 16 14 11 11 9 4 5 6 5 2 5 6 7 8 5 5 0 7 5 10 7 6 10 7 10 11 11 12 13 12 12 8 11 17 20 18 17 17 15 14 19 19 18 18 17 11 13 13 9 9 12 13 12 15 17 12 14 11 14 17 16 17 19 19 20 20 20 18 18 19 20 19
6 6 3 1 3 1 4 3 3 3 4 5 8 8 11 16 15 16 12 3 3 2 4 5 3 5 4 8 9 7 4 8 6 3 3 3 5 2 10 9 2 9 11 13 13 14 6 6 8 14 21 18 14 14 14 14 17 17 17 16 15 11 9 9 10 12 13 11 12 9 12 11 12 12 15 16 18 18 19 19 17 18 19 19 18 17 17 18
4 7 1 1 3 2 3 4 5 5 5 7 10 9 14 10 16 16 16 3 1 7 8 5 3 3 2 4 5 6 7 6 6 2 1 4 6 4 6 6 9 10 13 16 14 8 3 7 8 14 16 15 12 14 16 18 17 15 15 16 16 15 14 14 11 11 12 13 10 10 9 9 10 9 15 13 15 17 18 18 16 17 19 18 16 16 16 17
7 6 4 3 3 2 4 4 6 6 4 7 8 12 10 15 14 17 15 7 6 4 4 4 4 5 6 8 10 10 7 7 2 1 2 3 7 8 3 8 8 10 11 7 6 9 7 3 7 12 12 12 14 16 15 18 19 17 16 17 19 15 13 12 10 11 12 13 12 12 8 5 4 13 13 14 12 16 17 17 16 16 18 18 15 16 17 17
5 5 9 8 2 4 6 7 8 2 4 9 16 14 14 12 12 15 13 12 2 2 3 3 3 2 4 6 7 9 7 4 6 2 1 6 4 2 5 10 11 9 7 6 10 9 3 7 11 10 11 13 15 16 15 17 18 16 15 15 16 16 15 12 10 10 9 12 13 10 8 5 3 4 8 10 13 13 13 15 16 15 16 18 19 16 17 17
5 6 4 6 6 1 7 7 9 8 11 13 15 17 13 12 12 17 12 16 2 0 2 2 1 4 5 6 9 8 10 4 2 1 3 6 4 5 8 13 9 7 6 1 4 7 3 4 7 11 10 12 13 14 14 15 14 12 13 15 18 19 19 14 10 5 8 9 9 7 10 7 6 2 7 12 14 14 15 15 15 15 15 17 18 19 16 16
8 7 3 7 4 3 4 5 6 8 13 16 17 18 15 11 10 15 15 13 11 2 0 3 2 1 4 8 8 9 10 1 3 2 4 5 4 5 6 11 11 8 8 6 11 4 4 4 5 9 10 12 11 12 13 12 13 11 15 18 17 18 17 12 10 8 8 11 11 5 5 8 10 9 6 4 9 12 11 11 12 15 17 17 17 16 16 15
5 5 7 3 5 5 8 8 7 9 11 14 14 14 16 16 14 12 12 11 8 2 5 3 4 1 4 6 6 8 6 6 5 3 5 5 3 5 8 10 10 11 7 2 6 6 3 4 6 3 6 9 10 12 13 12 12 15 19 19 16 16 18 16 11 9 9 10 10 9 3 10 11 14 13 13 13 11 10 10 10 4 5 10 13 14 15 14
7 5 6 7 11 5 7 6 7 11 9 13 11 13 17 18 17 12 12 9 11 10 3 5 2 1 2 3 7 7 6 4 2 3 7 4 4 5 11 11 11 13 3 2 9 7 4 4 3 4 7 6 10 16 17 18 14 15 18 19 20 19 18 19 13 11 11 7 9 10 8 8 12 12 11 11 8 6 5 7 9 13 9 8 8 9 13 16
4 4 6 6 6 7 10 5 10 12 14 12 11 13 16 18 17 16 15 2 14 3 9 6 4 5 5 7 6 5 3 4 2 3 3 4 5 10 9 11 10 10 7 8 7 6 6 2 3 3 8 4 8 4 13 18 15 14 15 16 18 19 18 18 17 15 10 8 8 13 10 9 10 11 11 8 7 8 8 6 4 3 11 14 12 13 13 15
5 6 2 8 6 8 10 14 14 13 14 10 9 12 16 17 17 13 12 15 13 11 12 10 8 3 8 6 6 5 2 3 3 6 5 4 5 8 8 9 9 10 10 9 7 5 5 5 6 6 3 3 6 7 7 13 16 17 18 17 19 19 18 17 15 15 13 12 8 7 12 9 8 13 12 10 5 6 7 6 6 7 8 12 12 13 15 17
6 7 5 9 8 13 11 9 10 11 11 10 8 12 14 15 18 18 15 14 14 14 13 5 17 16 9 5 8 5 4 3 2 5 6 5 6 6 6 5 5 8 9 8 5 4 6 1 4 5 4 5 7 8 8 11 12 14 18 17 17 17 17 17 15 14 14 12 12 13 11 14 11 6 11 4 3 4 4 5 5 5 8 13 16 17 17 18
5 4 4 8 11 7 10 11 11 11 9 9 9 14 14 18 18 18 17 14 11 13 15 17 20 15 1 5 7 7 8 7 6 4 4 7 5 4 4 6 4 6 8 6 5 1 1 4 6 4 3 5 8 7 7 6 9 12 13 17 18 18 17 16 15 15 14 15 14 15 14 11 7 5 10 4 2 4 5 5 4 4 7 11 15 18 20 18
6 3 4 6 8 10 11 11 11 9 6 10 13 16 13 20 19 19 14 7 6 13 15 16 17 12 6 4 3 7 8 9 9 7 5 6 8 6 6 5 5 6 6 6 4 6 5 6 2 3 4 1 4 6 7 10 8 11 13 15 17 17 15 15 16 17 17 15 14 10 11 8 5 6 5 5 4 2 3 3 3 3 3 9 12 14 16 17
Wind_Direction
357 357 357 354 352 349 350 349 347 346 345 345 344 340 340 340 337 337 341 336 330 333 336 332 335 336 332 334 330 326 320 307 310 300 272 59 49 39 18 348 337 320 310 293 274 255 249 240 236 226 227 218 214 229 225 227 225 223 222 232 236 235 236 233 231 240 246 235 228 170 215 202 222 219 197 203 238 237 259 214 169 209 194 40 119 130 128 134
354 354 354 350 348 347 345 345 344 342 340 340 340 338 336 336 335 335 337 336 332 328 330 333 330 334 333 327 329 322 316 308 295 287 300 82 51 34 4 342 329 320 310 286 263 249 253 243 229 217 218 224 207 225 211 224 214 222 219 230 236 231 239 236 238 241 244 241 243 199 206 196 224 242 225 205 222 229 239 218 220 200 154 104 123 130 140 146
354 352 350 348 346 346 343 342 342 342 339 338 338 337 336 333 334 334 334 333 332 331 328 328 332 330 331 331 319 314 310 304 293 280 112 68 60 35 341 336 326 316 298 295 292 278 255 256 242 217 217 229 210 220 209 221 212 219 232 229 233 231 237 236 238 242 241 253 241 240 169 192 211 234 249 231 228 229 225 236 225 227 164 141 153 162 150 152
352 350 348 346 346 343 342 340 339 337 336 336 338 337 336 335 333 335 332 331 332 332 333 329 329 332 326 327 319 310 303 297 279 104 102 78 50 4 340 324 319 310 295 283 278 263 263 261 263 242 221 226 219 219 216 212 219 207 229 231 234 226 235 234 239 240 244 242 249 242 237 193 199 228 229 243 235 235 242 202 241 202 215 164 164 166 162 158
352 350 347 345 345 342 340 338 335 333 336 337 336 333 336 334 332 332 330 328 330 329 329 329 329 327 328 325 308 304 306 288 89 89 100 85 49 338 314 326 311 307 303 295 281 262 248 245 237 244 236 222 224 215 223 217 217 222 228 233 237 237 235 232 236 242 242 242 247 238 240 245 178 214 221 235 244 238 220 235 221 221 192 159 167 171 167 162
347 345 343 342 342 340 337 336 333 333 333 332 331 328 329 332 329 327 327 325 326 325 326 327 328 330 323 323 301 294 287 287 78 109 111 106 199 290 300 311 299 290 289 288 271 255 235 229 233 224 225 232 216 222 213 223 211 229 228 234 233 235 242 234 230 234 238 239 242 236 228 249 237 208 224 227 235 237 258 258 355 334 137 141 166 168 171 168
346 344 343 341 340 337 335 334 334 332 330 328 330 329 328 327 327 324 322 325 322 323 323 325 326 325 330 304 290 270 259 277 312 108 113 165 295 259 294 294 275 276 284 285 257 245 226 231 221 225 225 228 232 227 226 214 222 228 234 229 232 234 236 240 245 233 230 234 239 242 214 233 241 232 210 234 227 235 247 258 140 283 297 145 189 183 169 171
344 342 339 338 336 334 334 332 331 329 327 327 327 328 325 324 323 321 321 316 320 318 321 318 323 324 328 315 318 301 271 272 94 112 112 188 249 266 299 287 274 270 271 276 281 241 236 228 223 222 232 227 218 230 224 228 220 228 232 232 235 232 234 235 238 245 238 233 235 242 220 226 237 247 227 231 232 225 234 241 206 227 248 169 177 166 168 171
341 338 337 336 335 335 335 331 328 327 326 326 325 325 322 322 318 317 312 314 313 317 311 314 316 326 307 285 298 295 277 90 74 71 185 205 307 311 300 283 259 262 271 270 256 267 251 230 233 227 230 229 234 234 227 227 224 224 233 233 236 238 233 229 234 237 241 241 234 234 234 228 233 244 249 240 235 219 236 225 187 158 203 189 184 169 172 172
340 338 338 335 333 334 332 330 329 327 327 324 323 322 321 316 313 310 310 310 312 311 310 310 309 317 294 285 283 271 59 42 93 266 319 312 312 304 280 267 269 262 256 249 252 242 239 245 236 229 247 255 240 236 235 225 236 223 230 239 238 233 243 230 230 233 235 236 226 222 226 237 234 239 239 228 241 240 230 221 180 167 201 185 192 176 176 175
338 337 335 336 332 332 329 326 327 326 326 325 322 322 315 311 308 307 305 304 306 306 304 301 306 300 291 287 272 262 63 270 69 313 301 311 300 284 283 279 271 261 252 259 264 258 259 252 254 252 237 238 244 244 234 236 235 240 236 231 236 237 238 235 226 233 228 228 227 225 227 236 238 230 234 232 209 233 249 197 203 183 228 203 192 181 174 176
337 336 335 334 333 331 329 328 326 324 324 324 322 318 313 306 305 298 297 300 302 299 292 297 295 278 272 270 251 243 343 299 298 301 305 299 288 278 274 267 256 255 256 256 246 241 247 256 249 250 243 204 243 254 249 247 242 232 238 240 237 231 231 236 233 230 227 225 221 223 234 233 234 229 226 231 213 205 221 203 223 209 235 219 188 186 177 180
336 336 335 333 331 330 326 327 324 321 322 322 321 315 308 304 299 295 293 298 295 292 288 284 278 267 274 269 249 252 264 281 287 291 291 278 271 265 252 249 249 247 251 254 255 256 266 254 250 246 248 264 235 222 24 243 235 240 233 234 229 230 226 228 221 219 221 225 219 209 229 230 227 231 226 231 218 199 189 207 224 213 223 232 192 194 186 182
336 335 334 332 330 327 327 327 324 323 321 321 318 314 305 300 295 292 293 295 294 287 273 258 260 260 264 260 281 278 280 282 289 279 266 258 257 267 264 230 235 238 233 246 251 266 261 256 254 251 260 251 254 251 248 236 236 228 224 234 236 226 226 216 211 206 223 211 214 208 234 232 227 226 226 224 198 219 202 213 218 209 209 222 202 197 201 183
335 336 334 332 331 329 328 327 327 325 323 317 315 310 303 293 290 291 295 293 282 275 263 271 239 257 248 267 257 245 75 273 263 250 235 245 262 265 243 195 223 230 232 231 239 239 249 254 247 236 234 243 262 263 244 231 217 221 217 219 213 229 224 213 202 207 215 204 208 213 233 236 226 224 216 221 194 222 206 211 214 217 208 211 207 195 207 185
335 335 333 332 330 331 329 327 326 325 321 320 313 308 298 288 282 290 296 289 289 288 236 234 233 244 284 286 47 92 241 229 220 207 191 246 241 277 310 295 294 272 245 233 235 232 230 230 229 230 235 227 231 234 240 232 220 213 220 216 214 217 226 215 201 208 212 215 206 215 230 231 227 234 223 213 195 212 207 211 216 219 208 209 207 202 197 185
333 332 332 331 330 329 328 327 328 326 324 320 315 299 289 283 279 286 287 279 241 206 212 250 248 226 272 75 327 257 239 215 88 181 214 220 272 287 287 272 256 242 222 230 219 224 219 227 211 235 232 233 213 222 226 219 214 208 207 226 218 217 214 226 206 201 207 211 212 211 225 228 228 220 227 218 199 209 200 209 221 217 210 203 212 204 198 189
331 333 332 330 328 328 327 327 328 328 325 320 311 294 287 280 284 301 259 240 227 220 267 252 284 284 236 254 271 293 54 147 218 247 267 270 267 271 267 254 249 261 247 214 210 220 203 222 210 226 207 217 216 211 221 214 207 205 200 212 221 220 220 218 219 186 202 203 219 214 221 228 228 232 217 226 204 192 198 209 220 220 210 201 213 211 202 195
332 331 332 329 328 328 327 329 329 329 327 318 294 275 264 260 266 248 254 206 235 208 220 176 212 220 315 326 291 267 239 199 323 278 259 252 239 242 247 249 270 260 227 228 199 211 196 224 214 222 218 204 213 215 217 224 218 219 212 218 221 222 214 222 218 216 190 204 214 219 217 221 222 228 234 219 170 191 201 212 217 214 207 194 204 221 208 200
331 329 329 328 327 326 327 329 329 328 329 316 321 307 267 203 214 197 208 246 230 266 276 286 223 254 266 270 273 278 300 263 256 240 246 238 251 239 242 246 239 234 243 228 208 203 204 212 211 212 216 212 211 218 222 223 233 231 228 226 223 226 233 222 218 222 188 207 211 217 225 218 216 221 225 154 178 195 208 212 211 210 211 204 201 201 203 199
329 330 329 329 327 327 327 327 326 326 320 307 314 318 353 347 333 325 327 302 294 285 281 273 270 277 283 301 288 285 280 268 256 265 249 235 226 241 234 222 231 229 223 233 238 190 209 224 221 218 216 221 216 217 225 230 231 240 234 232 228 224 226 223 211 218 196 201 210 216 224 217 217 219 221 205 184 198 204 211 212 212 212 212 200 201 200 194
332 331 331 328 327 326 327 325 322 317 307 281 285 321 330 8 340 330 317 295 289 284 277 270 269 263 261 260 268 274 271 269 259 244 233 216 206 221 206 219 219 231 217 220 230 226 213 227 222 223 222 222 226 218 221 229 229 233 239 228 221 219 221 225 218 212 202 195 218 212 219 217 219 216 215 215 197 204 206 210 212 215 216 209 202 196 197 185
332 330 327 328 327 326 324 323 316 309 306 297 316 322 338 356 352 335 301 284 281 273 251 242 244 245 247 254 250 209 237 236 261 211 195 183 211 219 239 219 223 232 235 220 221 220 224 223 234 227 225 224 222 226 220 222 230 229 233 230 225 237 215 210 215 210 200 195 209 213 212 219 220 215 218 210 196 200 206 212 216 217 218 209 205 198 189 176
330 330 328 327 328 328 325 321 313 286 249 289 301 316 7 349 342 333 305 286 297 292 257 255 251 238 246 247 172 204 226 233 225 243 158 185 219 202 233 248 240 231 232 231 225 231 233 225 218 230 228 223 224 221 221 217 219 227 230 219 224 228 214 217 196 204 188 199 218 216 214 215 216 211 210 212 192 200 201 210 215 216 217 213 201 202 190 179
330 329 328 328 329 329 322 321 296 358 336 301 296 55 25 339 325 327 310 291 244 232 203 205 218 240 201 99 169 234 209 247 250 282 150 205 216 218 229 235 253 243 238 234 239 234 240 240 229 226 228 221 224 221 218 217 219 218 228 219 226 223 221 205 203 192 193 206 205 218 213 213 203 212 209 206 193 201 203 207 211 212 209 210 200 198 191 183
330 330 329 328 327 330 316 290 37 353 322 313 355 357 345 326 333 319 307 286 289 98 159 203 174 155 151 200 194 232 272 255 228 227 230 207 237 249 224 232 226 243 237 239 237 244 238 231 233 231 227 226 221 227 216 217 218 216 210 214 227 231 225 211 212 193 208 210 192 213 226 210 205 207 207 203 199 199 204 210 208 205 204 205 196 195 190 186
329 330 330 327 327 329 312 20 3 307 311 23 18 344 317 319 345 296 294 246 258 132 209 80 219 115 234 181 196 192 241 326 167 206 206 195 232 202 253 241 219 239 258 256 237 231 232 240 231 225 226 224 220 219 214 213 219 219 213 205 230 234 217 206 214 213 211 216 210 201 217 239 207 201 202 203 201 199 203 207 206 200 199 199 196 192 188 188
329 329 328 326 320 313 273 297 305 303 348 351 337 352 333 327 306 280 254 307 286 142 190 163 7 100 253 200 212 237 276 314 250 210 205 178 218 211 228 243 245 244 227 241 244 224 228 228 229 219 221 226 221 214 211 212 215 221 209 196 212 233 231 231 222 218 215 207 219 196 207 226 230 199 200 199 205 201 204 203 200 199 198 197 198 191 186 189
328 328 326 324 318 296 275 244 269 272 328 344 336 344 290 321 292 302 277 273 118 247 40 230 120 217 226 235 241 241 259 262 267 119 203 222 206 256 218 230 253 262 256 247 252 243 234 242 227 222 213 224 227 222 216 209 217 223 219 208 212 218 230 239 216 215 208 218 218 205 196 216 214 224 190 196 204 203 203 201 200 198 194 194 194 192 188 186
324 325 325 325 309 250 203 226 248 264 287 296 299 289 291 289 269 234 232 248 60 277 160 77 214 268 198 237 239 241 253 255 255 261 197 217 203 209 255 284 261 248 247 236 245 254 254 240 244 221 213 224 223 215 206 204 221 215 218 210 207 208 221 235 225 212 211 216 223 217 194 208 218 210 214 190 202 202 197 199 199 197 195 192 191 190 188 186
324 324 321 317 279 355 298 235 57 265 283 296 302 304 296 259 268 291 269 343 271 271 138 198 239 209 270 261 264 251 258 256 251 243 244 226 235 230 233 228 235 257 252 244 238 237 245 252 234 216 217 224 235 218 206 216 210 209 209 216 199 201 210 219 229 233 220 212 219 223 208 198 225 201 219 199 195 202 198 200 196 195 193 188 187 191 187 185
324 320 315 306 288 309 278 346 338 311 317 289 272 285 292 284 200 242 286 81 269 87 258 291 299 315 293 283 275 271 271 267 247 241 242 231 240 227 210 233 194 226 229 224 231 224 230 231 236 215 212 226 218 224 207 211 204 203 210 209 199 195 195 204 212 216 213 216 210 215 213 202 214 227 207 208 190 196 203 204 198 193 190 188 188 189 186 181
322 317 310 277 251 237 261 304 334 312 285 250 278 276 270 276 282 305 285 23 308 27 31 90 311 307 291 285 268 272 265 259 245 244 237 240 242 238 231 224 221 228 243 218 231 226 217 226 218 215 206 216 227 215 199 201 198 198 212 198 195 194 189 195 201 209 216 224 222 210 209 221 210 222 230 217 184 189 198 207 199 193 191 188 186 185 185 183
317 317 302 135 238 255 308 289 302 296 237 245 294 269 241 256 281 307 300 308 299 304 287 302 313 282 273 255 258 267 260 244 239 233 203 235 235 239 237 223 225 225 238 256 237 216 206 201 215 205 203 195 214 224 206 206 189 201 210 197 202 203 189 186 190 195 208 206 213 209 206 212 213 206 205 236 195 187 199 204 198 192 192 189 186 186 187 183
312 301 260 223 229 252 219 263 252 266 264 257 266 261 289 284 313 322 301 296 300 318 303 358 304 278 264 258 254 255 246 278 236 236 207 233 229 231 226 224 208 226 220 241 240 233 208 209 191 209 210 192 205 210 228 202 195 198 199 196 207 201 182 201 191 202 201 206 205 202 210 203 224 17 195 214 207 186 196 203 195 189 190 188 189 188 186 181
301 235 208 230 293 161 218 227 231 244 265 250 276 281 271 309 299 319 297 311 302 326 309 296 265 256 266 276 267 268 188 243 214 226 251 231 230 228 228 225 202 200 206 217 252 216 207 206 186 185 205 203 203 202 213 210 197 188 203 204 206 203 201 195 202 236 224 213 213 194 213 212 200 171 206 209 198 179 190 197 195 188 188 188 190 189 184 179
312 323 221 212 359 352 338 223 207 241 253 260 266 283 327 317 321 314 312 308 304 311 303 297 313 239 278 287 281 217 229 225 249 238 245 223 229 230 226 218 226 203 207 221 245 242 202 199 185 182 194 204 206 206 212 207 218 188 202 194 209 218 210 203 203 177 214 203 200 194 206 211 197 201 183 219 203 177 191 197 196 189 189 190 190 188 181 175
325 303 303 256 44 344 285 173 213 226 250 256 247 260 293 288 306 312 310 314 317 249 248 271 276 168 273 286 305 169 216 236 135 197 254 213 246 210 213 218 200 222 206 197 241 244 243 196 187 193 192 189 201 204 211 222 222 210 197 186 214 192 204 197 215 190 191 201 206 197 210 214 208 203 180 201 199 178 193 197 195 192 189 189 186 186 181 176
279 276 246 112 2 52 135 181 228 217 248 257 271 293 320 308 311 312 327 322 294 267 253 250 260 214 260 287 307 295 240 246 203 231 219 177 231 185 227 198 184 202 211 219 228 244 245 223 174 190 189 178 198 204 207 201 212 216 204 208 215 212 213 196 211 194 201 197 202 189 201 214 208 195 173 193 194 189 193 194 195 191 188 187 183 182 181 173
284 285 131 90 52 89 113 194 207 212 223 271 306 299 307 305 317 321 324 0 322 223 261 288 252 269 254 269 295 294 295 264 244 206 274 161 258 326 244 179 217 187 214 218 245 264 269 310 194 177 184 175 199 198 199 204 192 199 208 208 199 222 205 226 211 215 201 201 200 196 201 216 209 198 178 194 194 196 195 194 196 190 184 184 179 176 178 173
304 262 112 195 54 116 156 185 228 228 263 283 282 283 310 318 316 311 317 41 222 220 248 266 300 272 292 305 271 246 252 240 251 275 213 216 216 184 212 195 169 202 206 224 230 223 186 224 197 170 180 190 191 190 200 210 211 199 197 202 198 201 197 204 206 210 211 204 195 202 209 207 203 199 178 201 193 196 193 193 192 184 179 175 176 179 177 168
288 315 65 127 101 211 232 245 235 226 271 286 322 337 318 324 308 315 319 336 157 285 253 257 267 253 270 266 274 280 282 281 252 243 207 248 184 295 130 201 183 196 215 208 222 202 250 218 228 172 179 181 187 186 205 216 217 203 199 196 198 198 206 201 200 191 213 206 200 211 221 182 220 197 191 171 187 201 191 192 187 188 179 174 180 185 183 175
311 348 86 122 129 220 251 271 288 269 270 323 333 318 326 310 313 321 328 336 353 22 288 240 252 279 262 261 294 305 285 316 294 17 216 221 168 343 143 199 199 236 253 231 231 177 44 218 175 179 170 172 181 186 200 208 220 212 205 208 200 202 204 205 211 189 204 194 200 190 212 139 114 132 200 166 174 200 188 193 192 183 179 177 170 187 193 176
325 307 136 127 155 228 272 322 332 325 324 317 319 324 320 320 310 333 337 337 351 230 296 298 302 237 278 283 282 291 307 290 56 316 183 238 165 181 176 192 212 226 236 159 252 136 203 228 202 161 169 175 178 177 198 198 213 214 202 209 208 208 205 219 226 194 222 212 206 208 200 144 137 189 214 190 177 192 180 187 194 184 182 178 180 182 181 175
288 240 267 148 188 222 282 338 319 314 319 324 328 323 324 328 339 345 335 329 343 140 36 289 282 281 258 283 287 282 276 58 290 177 261 188 119 187 165 204 185 242 213 315 332 25 349 258 218 174 175 171 171 186 183 182 208 201 220 205 206 205 204 210 220 190 217 207 190 185 193 134 135 176 177 210 186 176 178 173 192 192 185 182 183 172 164 164
355 326 346 356 180 233 262 233 240 316 327 328 326 315 328 325 342 348 350 330 10 164 185 251 284 208 256 302 272 272 261 165 229 160 239 185 173 192 190 200 194 226 214 355 280 297 282 290 314 320 184 169 182 191 183 191 187 202 204 209 202 213 202 210 216 208 208 198 202 196 117 128 152 157 180 176 188 180 179 170 181 105 131 168 164 158 158 158
289 345 344 333 323 222 301 327 343 348 325 327 309 330 326 333 337 333 358 326 355 349 177 187 197 9 289 236 278 281 260 247 169 222 218 201 214 171 178 195 192 220 35 338 248 270 247 257 199 277 302 252 203 194 184 196 190 196 201 203 203 208 215 211 210 210 214 209 202 204 112 189 144 153 147 144 141 122 148 174 186 175 171 141 148 150 161 166
331 21 339 38 293 299 316 342 339 323 322 310 311 324 321 333 339 341 340 336 332 348 334 153 172 243 236 228 290 289 193 204 140 221 237 247 211 153 178 193 199 205 228 254 231 250 295 279 220 292 254 274 353 351 187 185 190 194 202 199 206 209 213 211 210 216 207 215 201 198 160 132 151 141 145 135 126 129 115 103 112 153 173 175 176 171 178 183
15 327 3 28 314 313 316 307 311 317 317 333 324 329 332 333 332 343 331 319 335 347 9 335 320 187 226 229 234 266 224 162 194 228 243 233 204 168 179 178 220 193 208 238 248 242 262 261 248 233 217 217 207 202 234 214 191 196 201 199 203 199 207 223 212 209 204 212 231 192 203 192 178 151 159 139 116 102 105 103 144 167 185 166 179 185 196 198
23 357 334 337 304 287 293 317 321 322 321 1 347 344 330 327 328 333 332 333 324 328 348 329 315 351 331 212 215 237 225 296 73 202 211 235 219 221 168 200 177 205 198 221 247 221 253 346 332 294 267 224 213 231 214 208 218 208 197 197 201 207 205 209 221 220 223 230 236 263 217 207 208 168 102 99 118 121 149 170 160 176 172 178 184 181 194 200
4 357 342 321 318 317 314 318 335 335 324 358 342 338 324 325 325 326 318 318 304 322 335 324 318 326 287 194 217 253 274 268 281 253 215 225 222 204 236 187 239 190 210 219 243 309 238 283 275 228 231 215 209 216 229 240 230 223 216 205 199 200 205 205 213 207 216 217 230 234 238 210 185 116 112 138 237 226 187 171 169 185 181 179 187 181 190 194
347 19 305 316 302 295 300 336 322 341 351 354 334 331 324 316 315 325 321 325 299 316 332 323 327 343 154 221 344 314 289 254 241 248 256 236 248 254 246 277 261 209 195 226 238 262 217 261 260 308 270 299 187 175 224 222 217 223 220 215 208 199 205 203 207 210 213 223 224 225 231 234 176 145 156 165 212 135 221 160 141 170 221 186 191 191 186 188